User: anonymous
Location: Vancouver
(49.2500°N, 123.1330°W)
Time: 16:26:32
(UTC-07:00)
Language:

deb Explorer IX - Orbit

View from above orbital plane
View from above orbital plane
View from above satellite
View from above satellite

Ground track
Ground track

The orbit data is extracted from the following two-line orbital elements,

1 00085U 61004C   14243.25626276  .00003822  00000-0  10261-2 0   228
2 00085 038.7678 307.3233 0453284 169.5798 191.4718 14.01575457630814
Epoch (UTC): 31 August 2014 06:09:01
Eccentricity: 0.0453284
inclination: 38.7678°
perigee height: 559 km
apogee height: 1218 km
right ascension of ascending node: 307.3233°
argument of perigee: 169.5798°
revolutions per day: 14.01575457
mean anomaly at epoch: 191.4718°
orbit number at epoch: 63081

The dashed part of the orbit path shows where the satellite is in the earth's shadow,  

DLR